Regional Weather Roundup
Issued by NWS

Home | Current Version | Previous Version | Graphics & Text | Print | Product List | Glossary On
Versions: 1 2 3 4 5 6 7 8 9 10 11 12 13 14 15 16 17 18 19 20 21 22 23 24 25 26 27 28 29 30 31 32 33 34 35 36 37 38 39 40 41 42 43 44 45 46 47 48 49 50
000
ASUS45 KBOI 262010
RWRID

IDAHO REGIONAL WEATHER ROUNDUP
NATIONAL WEATHER SERVICE BOISE ID
200 PM MDT WED APR 26 2017

NOTE: "FAIR" INDICATES FEW OR NO CLOUDS BELOW 12000 FEET
WITH NO SIGNIFICANT WEATHER AND/OR OBSTRUCTIONS TO VISIBILITY

IDZ012-014-262100-
SOUTHWEST IDAHO


CITY           SKY/WX    TMP DP  RH WIND       PRES   REMARKS
BOISE          LGT RAIN  48  44  86 W7        29.79F FOG
CALDWELL       LGT RAIN  49  45  86 W7        29.81F
MOUNTAIN HOME  LGT RAIN  48  48 100 N12       29.79F
$$

IDZ016-017-262100-
SOUTHCENTRAL IDAHO


CITY           SKY/WX    TMP DP  RH WIND       PRES   REMARKS
BURLEY         CLOUDY    51  37  58 SW12      29.76F
JEROME         LGT RAIN  46  43  89 W10       29.80R
TWIN FALLS     LGT RAIN  47  43  86 W14       29.80R
$$

IDZ019>023-262100-
SOUTHEAST IDAHO


CITY           SKY/WX    TMP DP  RH WIND       PRES   REMARKS
IDAHO FALLS    CLOUDY    51  39  63 SW16G25   29.75F
POCATELLO      CLOUDY    52  38  58 SW18      29.77F
REXBURG        CLOUDY    48  35  60 SW17      29.73F
$$

IDZ006-010-011-018-031-032-262100-
CENTRAL IDAHO MOUNTAINS


CITY           SKY/WX    TMP DP  RH WIND       PRES   REMARKS
MCCALL         LGT RAIN  38  33  82 CALM      29.74F
HAILEY         LGT RAIN  45  36  70 NW9       29.77F
STANLEY          N/A     39  23  52 SE6       29.76F WCI  35
SALMON         CLOUDY    45  36  70 N3        29.71S
CHALLIS        CLOUDY    45  33  63 NW21      29.72R
$$

IDZ002-004-006-007-026-262100-
NORTHERN IDAHO


CITY           SKY/WX    TMP DP  RH WIND       PRES   REMARKS
LEWISTON       CLOUDY    55  40  56 NW5       29.74F
LOWELL           N/A     58  43  57 VRB6      29.71F
COEUR D`ALENE  CLOUDY    52  40  63 SW12      29.68F
MULLAN PASS    FOG       32  31  96 VRB6      29.66F VSB 1/2 WCI  26
$$



USA.gov is the U.S. government's official web portal to all federal, state and local government web resources and services.